Retour au catalogue

EPSILON R/B

ActifLEO
NORAD 39255·ROCKET BODY·🇯🇵 Japan

Lancé Sep 14, 2013 depuis Uchinoura Space Center

Loading…

Prochains Passages (prochaines 24 heures)

TLE

FraisSource: Space-Track

Époque: Sep 14, 2026, 14:45 UTC

1 39255U 13049C   26257.61509931  .00000154  00000-0  49226-4 0  9994
2 39255  29.7516 345.7937 0112906 181.8348 178.1831 14.01655925666326

Suivez EPSILON R/B en temps réel avec AllMySat

Download on the App Store